Date String (YYYY-MM-DD hh:mm:ss) UTC,Instrument flags,absolute air pressure of the measurement (hPa),sample flow rate (lpm),inlet stack bypass flow (lpm),air temperature of the measurement (°C),ambient temperature measured by the external sensor (°C),aerosol sample conditioner tube jacket temperature (°C),OPC LED temperature (°C),internal box temperature (°C),relative humidity of the measurement (%),span deviation,mass concentration of particles derived from Lorenz-Mie calculation of OPC scattering (μg/m³),mass concentration of particles derived from Lorenz-Mie calculation of OPC scattering (μg/m³),mass concentration of particles derived from Lorenz-Mie calculation of OPC scattering (μg/m³)
DateTimeUTC,F1_M11,P_M11,Q1_M11,Q2_M11,T1_M11,T2_M11,T3_M11,T4_M11,T5_M11,U1_M11,ZSPAN_M11,X2_M11,X0_M11,X1_M11
2024-01-29 03:00:00,SystemResetWarning,0837.0,5.00,000.00,026.0,024.7,000.0,034.3,027.3,11.7,0000.0,0001.26,0003.06,0000.91
2024-01-29 03:01:00,SystemResetWarning,0837.0,4.99,000.00,026.0,024.6,000.0,034.3,027.3,12.0,0000.0,0001.26,0003.05,0000.90
2024-01-29 03:02:00,SystemResetWarning,0837.0,4.99,000.00,026.0,024.6,000.0,034.3,027.3,12.0,0000.0,0001.27,0003.05,0000.90
2024-01-29 03:03:00,SystemResetWarning,0837.0,4.99,000.00,025.9,024.6,000.0,034.3,027.3,11.9,0000.0,0001.31,0003.77,0000.90
2024-01-29 03:04:00,SystemResetWarning,0837.0,5.00,000.00,025.9,024.6,000.0,034.3,027.3,11.8,0000.0,0001.35,0003.87,0000.89
2024-01-29 03:05:00,SystemResetWarning,0837.0,5.01,000.00,025.9,024.6,000.0,034.3,027.3,11.8,0000.0,0001.35,0003.33,0000.90
2024-01-29 03:06:00,SystemResetWarning,0837.0,5.00,000.00,025.9,024.6,000.0,034.3,027.3,11.8,0000.0,0001.33,0003.13,0000.91
2024-01-29 03:07:00,SystemResetWarning,0837.0,5.00,000.00,025.9,024.6,000.0,034.3,027.3,11.8,0000.0,0001.33,0003.10,0000.92
2024-01-29 03:08:00,SystemResetWarning,0837.0,5.01,000.00,025.9,024.5,000.0,034.3,027.3,11.8,0000.0,0001.29,0002.96,0000.92
2024-01-29 03:09:00,SystemResetWarning,0837.0,5.00,000.00,025.9,024.5,000.0,034.2,027.2,11.8,0000.0,0001.30,0002.85,0000.93
2024-01-29 03:10:00,SystemResetWarning,0836.9,5.00,000.00,025.9,024.5,000.0,034.2,027.2,11.8,0000.0,0001.31,0002.82,0000.95
2024-01-29 03:11:00,SystemResetWarning,0837.0,5.00,000.00,025.9,024.5,000.0,034.2,027.2,11.8,0000.0,0001.31,0002.76,0000.98
2024-01-29 03:12:00,SystemResetWarning,0837.0,5.00,000.00,025.9,024.5,000.0,034.2,027.2,11.7,0000.0,0001.32,0002.76,0000.99
2024-01-29 03:13:00,SystemResetWarning,0837.0,5.01,000.00,025.9,024.5,000.0,034.2,027.2,11.7,0000.0,0001.31,0002.81,0001.00
2024-01-29 03:14:00,SystemResetWarning,0837.0,5.00,000.00,025.9,024.5,000.0,034.2,027.2,11.7,0000.0,0001.29,0002.81,0001.01
2024-01-29 03:15:00,SystemResetWarning,0837.0,5.00,000.00,025.8,024.5,000.0,034.2,027.2,11.7,0000.0,0001.29,0003.07,0001.03
2024-01-29 03:16:00,SystemResetWarning,0837.0,5.00,000.00,025.8,024.5,000.0,034.2,027.2,11.7,0000.0,0001.30,0003.13,0001.05
2024-01-29 03:17:00,SystemResetWarning,0837.0,5.00,000.00,025.8,024.5,000.0,034.2,027.2,11.7,0000.0,0001.34,0003.21,0001.07
2024-01-29 03:18:00,SystemResetWarning,0837.1,5.00,000.00,025.8,024.5,000.0,034.2,027.2,11.7,0000.0,0001.34,0004.17,0001.08
2024-01-29 03:19:00,SystemResetWarning,0837.1,5.00,000.00,025.8,024.5,000.0,034.2,027.2,11.9,0000.0,0001.34,0004.19,0001.09
2024-01-29 03:20:00,SystemResetWarning,0837.2,5.00,000.00,025.8,024.5,000.0,034.2,027.2,11.9,0000.0,0001.31,0004.06,0001.09
2024-01-29 03:21:00,SystemResetWarning,0837.1,5.00,000.00,025.8,024.5,000.0,034.1,027.2,11.8,0000.0,0001.32,0004.12,0001.10
2024-01-29 03:22:00,SystemResetWarning,0837.1,5.00,000.00,025.8,024.5,000.0,034.1,027.2,11.7,0000.0,0001.29,0004.08,0001.10
2024-01-29 03:23:00,SystemResetWarning,0837.1,5.01,000.00,025.8,024.5,000.0,034.1,027.2,11.7,0000.0,0001.30,0003.98,0001.11
2024-01-29 03:24:00,SystemResetWarning,0837.1,5.00,000.00,025.8,024.5,000.0,034.1,027.2,11.7,0000.0,0001.35,0004.01,0001.12
2024-01-29 03:25:00,SystemResetWarning,0837.1,5.00,000.00,025.8,024.5,000.0,034.1,027.2,11.7,0000.0,0001.38,0003.65,0001.13
2024-01-29 03:26:00,SystemResetWarning,0837.1,5.01,000.00,025.8,024.5,000.0,034.1,027.2,11.7,0000.0,0001.41,0003.12,0001.14
2024-01-29 03:27:00,SystemResetWarning,0837.1,5.00,000.00,025.8,024.5,000.0,034.1,027.2,11.8,0000.0,0001.40,0003.05,0001.15
2024-01-29 03:28:00,SystemResetWarning,0837.1,5.00,000.00,025.8,024.5,000.0,034.1,027.2,11.7,0000.0,0001.42,0003.08,0001.16
2024-01-29 03:29:00,SystemResetWarning,0837.2,4.99,000.00,025.8,024.6,000.0,034.1,027.2,11.8,0000.0,0001.46,0002.35,0001.18
2024-01-29 03:30:00,SystemResetWarning,0837.2,5.00,000.00,025.8,024.6,000.0,034.1,027.2,12.2,0000.0,0001.50,0002.21,0001.19
2024-01-29 03:31:00,SystemResetWarning,0837.2,5.00,000.00,025.8,024.6,000.0,034.1,027.1,12.0,0000.0,0001.56,0002.46,0001.21
2024-01-29 03:32:00,SystemResetWarning,0837.2,5.00,000.00,025.8,024.7,000.0,034.1,027.1,12.0,0000.0,0001.59,0002.76,0001.23
2024-01-29 03:33:00,SystemResetWarning,0837.2,5.00,000.00,025.8,024.7,000.0,034.1,027.2,11.9,0000.0,0001.56,0002.65,0001.23
2024-01-29 03:34:00,SystemResetWarning,0837.2,5.01,000.00,025.8,024.7,000.0,034.1,027.2,12.0,0000.0,0001.62,0002.81,0001.24
2024-01-29 03:35:00,SystemResetWarning,0837.2,5.00,000.00,025.8,024.7,000.0,034.1,027.2,12.1,0000.0,0001.64,0002.91,0001.26
2024-01-29 03:36:00,SystemResetWarning,0837.2,5.00,000.00,025.8,024.8,000.0,034.1,027.2,12.1,0000.0,0001.65,0004.85,0001.28
2024-01-29 03:37:00,SystemResetWarning,0837.2,4.99,000.00,025.8,024.8,000.0,034.1,027.2,12.0,0000.0,0001.68,0005.08,0001.30
2024-01-29 03:38:00,SystemResetWarning,0837.2,4.99,000.00,025.8,024.8,000.0,034.1,027.2,12.0,0000.0,0001.73,0005.52,0001.32
2024-01-29 03:39:00,SystemResetWarning,0837.1,5.00,000.00,025.8,024.8,000.0,034.1,027.2,11.9,0000.0,0001.75,0006.31,0001.34
2024-01-29 03:40:00,SystemResetWarning,0837.2,5.00,000.00,025.8,024.8,000.0,034.1,027.2,11.8,0000.0,0001.76,0006.31,0001.36
2024-01-29 03:41:00,SystemResetWarning,0837.2,5.00,000.00,025.8,024.8,000.0,034.1,027.2,11.8,0000.0,0001.77,0006.60,0001.39
2024-01-29 03:42:00,SystemResetWarning,0837.2,5.01,000.00,025.8,024.9,000.0,034.1,027.2,11.9,0000.0,0001.79,0006.71,0001.41
2024-01-29 03:43:00,SystemResetWarning,0837.2,5.01,000.00,025.8,024.9,000.0,034.1,027.2,11.9,0000.0,0001.78,0006.41,0001.42
2024-01-29 03:44:00,SystemResetWarning,0837.2,5.00,000.00,025.8,024.9,000.0,034.1,027.3,11.9,0000.0,0001.82,0006.40,0001.44
2024-01-29 03:45:00,SystemResetWarning,0837.1,5.00,000.00,025.8,024.9,000.0,034.1,027.3,11.9,0000.0,0001.82,0006.37,0001.45
2024-01-29 03:46:00,SystemResetWarning,0837.1,5.01,000.00,025.8,024.9,000.0,034.1,027.3,11.9,0000.0,0001.78,0006.21,0001.45
2024-01-29 03:47:00,SystemResetWarning,0837.2,5.00,000.00,025.8,024.9,000.0,034.1,027.3,11.9,0000.0,0001.78,0004.86,0001.44
2024-01-29 03:48:00,SystemResetWarning,0837.2,5.00,000.00,025.8,024.9,000.0,034.1,027.2,11.9,0000.0,0001.73,0004.17,0001.43
2024-01-29 03:49:00,SystemResetWarning,0837.2,5.00,000.00,025.8,024.9,000.0,034.1,027.2,12.1,0000.0,0001.72,0004.08,0001.41
2024-01-29 03:50:00,SystemResetWarning,0837.2,4.99,000.00,025.8,024.9,000.0,034.1,027.2,12.1,0000.0,0001.69,0003.47,0001.38
2024-01-29 03:51:00,SystemResetWarning,0837.2,4.99,000.00,025.8,024.9,000.0,034.1,027.2,12.1,0000.0,0001.69,0004.03,0001.36
2024-01-29 03:52:00,SystemResetWarning,0837.2,5.00,000.00,025.8,024.9,000.0,034.1,027.2,12.1,0000.0,0001.67,0003.87,0001.35
2024-01-29 03:53:00,SystemResetWarning,0837.2,5.00,000.00,025.8,024.9,000.0,034.1,027.2,12.0,0000.0,0001.62,0003.45,0001.32
2024-01-29 03:54:00,SystemResetWarning,0837.2,5.01,000.00,025.8,024.9,000.0,034.1,027.2,12.0,0000.0,0001.59,0003.40,0001.28
2024-01-29 03:55:00,SystemResetWarning,0837.2,5.00,000.00,025.8,024.9,000.0,034.1,027.2,12.0,0000.0,0001.61,0003.53,0001.25
2024-01-29 03:56:00,SystemResetWarning,0837.2,5.00,000.00,025.8,024.9,000.0,034.1,027.2,12.0,0000.0,0001.60,0004.65,0001.23
2024-01-29 03:57:00,SystemResetWarning,0837.2,4.99,000.00,025.8,024.9,000.0,034.1,027.2,12.0,0000.0,0001.59,0004.91,0001.23
2024-01-29 03:58:00,SystemResetWarning,0837.2,4.99,000.00,025.8,024.9,000.0,034.1,027.2,12.0,0000.0,0001.60,0004.94,0001.22
2024-01-29 03:59:00,SystemResetWarning,0837.2,4.99,000.00,025.8,024.9,000.0,034.1,027.2,12.0,0000.0,0001.59,0004.83,0001.21
